Simultaneous Nadir Overpasses (SNOs) Predictions

Prediction of SNOs between GOES-15 and METOP-B Satellite Orbit:

Table of predicted SNOs for the next 14.0 days since TLE Epoch: 1/21/2023
Index Date Time (GOES-15) GOES-15 Lat,Lon METOP-B Lat,Lon Distance(km) Time Diff (sec)
1 01/21/2023 06:09:15 0.02,-128.21 -0.21,-129.37 131.71 80
2 01/22/2023 05:45:55 0.02,-128.22 0.87,-124.36 438.90 80
3 01/23/2023 18:04:45 -0.01,-128.18 0.16,-128.92 84.62 80
4 01/24/2023 17:46:46 -0.01,-128.19 -0.98,-123.93 486.12 80
5 01/26/2023 06:05:45 0.01,-128.26 -0.05,-128.52 29.06 80
6 01/28/2023 18:03:55 -0.01,-128.23 -0.03,-128.07 17.63 80
7 01/30/2023 06:22:54 0.01,-128.30 -0.99,-132.66 498.08 80
8 01/31/2023 05:59:34 0.01,-128.30 0.17,-127.67 72.08 80
9 02/01/2023 18:18:24 -0.00,-128.25 0.89,-132.22 452.70 80
10 02/02/2023 18:00:23 -0.00,-128.25 -0.22,-127.22 117.21 80
